Lawton, OK

9:21 AM CDT on March 29, 2017 (GMT -0500)
Lawton-Fort Sill Regional

Weather History for KLAW - November, 2012

Change the Weather History Date:

Monday, November 5, 2012

  Actual Average Record
Temperature  
Mean Temperature 58 °F -  
Max Temperature 72 °F 66 °F 84 °F (2008)
Min Temperature 43 °F 39 °F 27 °F (1951)
Degree Days  
Heating Degree Days 8    
Growing Degree Days 8 (Base 50)    
Moisture  
Dew Point 36 °F    
Average Humidity 50    
Maximum Humidity 79    
Minimum Humidity 22    
Precipitation  
Precipitation 0.00 in - - ()
Sea Level Pressure  
Sea Level Pressure 30.10 in    
Wind  
Wind Speed 7 mph (North)    
Max Wind Speed 23 mph    
Max Gust Speed 33 mph    
Visibility 10 miles    
Events      
Averages and records for this station are not official NWS values.
T = Trace of Precipitation, MM = Missing Value Source: NWS Daily Summary

Daily Weather History Graph

Daily Weather History Graph

Search for Another Location

Airport or City:

Trip Planner

Search our weather history database for the weather conditions in past years. The results will help you decide how hot, cold, wet, or windy it might be!

Date:

Astronomy

Nov. 05, 2012 Rise Set
Actual Time 6:58 AM CST 5:35 PM CST
Civil Twilight 6:31 AM CST 6:02 PM CST
Nautical Twilight 6:02 AM CST 6:32 PM CST
Astronomical Twilight 5:32 AM CST 7:01 PM CST
Moon 11:14 PM CST (11/5) 12:18 PM CST (11/5)
Length of Visible Light 11h 30m
Length of Day
10h 37m
Waning Gibbous, 62% of the Moon is Illuminated
Nov 5
Waning Gibbous
Nov 6
Last Quarter
Nov 13
New
Nov 20
First Quarter
Nov 28
Full

Hourly Weather History & Observations

Time (CST) Temp. Windchill Dew Point Humidity Pressure Visibility Wind Dir Wind Speed Gust Speed Precip Events Conditions
12:53 AM 43.0 °F - 36.0 °F 76% 30.08 in 10.0 mi Calm Calm - N/A   Clear
1:53 AM 43.0 °F - 36.0 °F 76% 30.07 in 10.0 mi Calm Calm - N/A   Clear
2:53 AM 45.0 °F - 37.9 °F 76% 30.07 in 10.0 mi Calm Calm - N/A   Clear
3:53 AM 46.0 °F - 39.0 °F 76% 30.07 in 10.0 mi Calm Calm - N/A   Clear
4:53 AM 48.0 °F - 39.9 °F 74% 30.07 in 10.0 mi Calm Calm - N/A   Clear
5:53 AM 48.9 °F - 41.0 °F 74% 30.09 in 10.0 mi Calm Calm - N/A   Clear
6:53 AM 46.0 °F 43.1 °F 39.9 °F 79% 30.09 in 10.0 mi NNE 5.8 mph - N/A   Clear
7:53 AM 60.1 °F - 39.0 °F 46% 30.10 in 10.0 mi North 13.8 mph - N/A   Clear
8:53 AM 62.1 °F - 37.9 °F 41% 30.12 in 10.0 mi North 13.8 mph - N/A   Clear
9:53 AM 66.9 °F - 37.9 °F 34% 30.13 in 10.0 mi North 21.9 mph 31.1 mph N/A   Clear
10:53 AM 69.1 °F - 39.0 °F 33% 30.13 in 10.0 mi North 19.6 mph 26.5 mph N/A   Clear
11:53 AM 72.0 °F - 37.0 °F 28% 30.12 in 10.0 mi North 23.0 mph 33.4 mph N/A   Clear
12:53 PM 72.0 °F - 30.9 °F 22% 30.09 in 10.0 mi North 16.1 mph 23.0 mph N/A   Clear
1:53 PM 71.1 °F - 32.0 °F 24% 30.08 in 10.0 mi North 19.6 mph 28.8 mph N/A   Clear
2:53 PM 72.0 °F - 33.1 °F 24% 30.07 in 10.0 mi North 19.6 mph 25.3 mph N/A   Clear
3:53 PM 70.0 °F - 30.9 °F 24% 30.07 in 10.0 mi NNW 23.0 mph 31.1 mph N/A   Clear
4:53 PM 68.0 °F - 30.9 °F 25% 30.06 in 10.0 mi North 11.5 mph 21.9 mph N/A   Clear
5:53 PM 61.0 °F - 30.9 °F 32% 30.09 in 10.0 mi North 11.5 mph - N/A   Clear
6:53 PM 57.9 °F - 30.9 °F 36% 30.11 in 10.0 mi North 8.1 mph - N/A   Clear
7:53 PM 55.0 °F - 35.1 °F 47% 30.10 in 10.0 mi NE 8.1 mph - N/A   Clear
8:53 PM 50.0 °F - 35.1 °F 57% 30.13 in 10.0 mi Calm Calm - N/A   Clear
9:53 PM 46.0 °F - 35.1 °F 66% 30.14 in 10.0 mi Calm Calm - N/A   Clear
10:53 PM 44.1 °F 41.5 °F 34.0 °F 68% 30.13 in 10.0 mi West 4.6 mph - N/A   Clear
11:53 PM 43.0 °F - 34.0 °F 71% 30.12 in 10.0 mi Calm Calm - N/A   Clear